KOMPSAT 5

Satellite information

Favourite Embed

Satellite Type and Status

PAYLOADIN ORBIT

Key statistics

Satellite KOMPSAT 5 at a glance.

Uptime

4401

Days in orbit

Revolutions

≈ 15.0

Per day

Orbit

SSO

Sun Synchronous Orbit

Inclination

97.6

Latest

Satellite identification and parameters

Extended collection of information and parameters for KOMPSAT 5.

Object identification

Identified? True

Debris? False

Object name: KOMPSAT 5

International designator: 2013-042A

Object number (NORAD): 39227

Object ID (CCSDS): 39227

Country: SOUTH KOREA (SKOR)

Current information (Y/N): Y

RCS size: LARGE

Orbital parameters

Period: 95.711 minutes

Inclination: 97.6214 deg

SMA: 6931.109 km

Apoapsis: 555.505 km

Periapsis: 550.444 km

RAAN: 77.2669 deg

Eccentricy: 0.0003651

Argument of periapsis: 51.3116 deg

Mean anomaly: 308.8436 deg

Mean motion: 15.04522352 rev/day

Mean motion (dot): 0.0000175 rev/day2

B* drag term: 0.00012928677 1/REarth

Two-line elements (TLE)

Creation date: Sept. 8, 2025, 6:18 p.m.

Reference frame: TEME

Reference center: EARTH

Epoch: Sept. 8, 2025, 3:15 p.m. UTC

TLE line 0: 0 KOMPSAT 5

TLE line 1: 1 39227U 13042A 25251.63605106 .00001750 00000-0 12929-3 0 9994

TLE line 2: 2 39227 97.6214 77.2669 0003651 51.3116 308.8436 15.04522352661524

Live tracking on map

Real-time ground track for satellite KOMPSAT 5.

In-orbit conjunctions

There are no conjunctions computed for KOMPSAT 5, at the moment. Check back to stay up to date, as we update our databases every day.

Go to all conjunctions

Associated space launch

KOMPSAT 5 was lifted into orbit during the mission ‘Dnepr 1 | KOMPSat-5 (Arirang-5)’, on board a Dnepr space rocket.

The launch took place on Aug. 22, 2013, 2:39 p.m. from 370/13.

For more information about the launch, click the button.

Launch to space Dnepr 1 | KOMPSat-5 (Arirang-5)
Dnepr 1 | KOMPSat-5 (Arirang-5)

Agency: N/A

Status: Launch Successful

Launch date: Aug. 22, 2013, 2:39 p.m. UTC

Rocket: Dnepr

Launch pad: 370/13

Location: Dombarovskiy, Russian Federation

...

Latest news about this satellite

There are no fresh news available about this satellite. Check back as we update our databases every day.


Newsletter sign-up

Weekly statistics, charts and insights to help you stay on top of the space industry.